Regional Weather Roundup
Issued by NWS

Home | Current Version | Previous Version | Graphics & Text | Print | Product List | Glossary Off
Versions: 1 2 3 4 5 6 7 8 9 10 11 12 13 14 15 16 17 18 19 20 21 22 23 24 25 26 27 28 29 30 31 32 33 34 35 36 37 38 39 40 41 42 43 44 45 46 47 48 49 50

000
ASUS43 KMPX 290710
RWRMN
WEATHER ROUNDUP FOR MINNESOTA
NATIONAL WEATHER SERVICE TWIN CITIES/CHANHASSEN MN
100 AM CST SAT NOV 29 2014


NOTE: "FAIR" INDICATES FEW OR NO CLOUDS BELOW 12,000 FEET WITH NO
SIGNIFICANT WEATHER AND/OR OBSTRUCTIONS TO VISIBILITY. N/A MEANS
CURRENT SKY AND/OR WEATHER CONDITIONS ARE NOT AVAILABLE.

MNZ060>063-068>070-290800-
   Twin Cities Metro

CITY           SKY/WX    TMP DP  RH WIND       PRES   REMARKS
TWIN CITIES    MOCLDY    22  18  85 SE8       29.64F WCI  12
ST PAUL        PTCLDY    23  19  85 E7        29.67F WCI  15
CRYSTAL        CLEAR     24  19  81 SE6       29.62F WCI  17
BLAINE         FAIR      23  21  93 E6        29.63F WCI  16
LAKEVILLE      PTCLDY    18  16  93 SE3       29.63F
EDEN PRAIRIE   PTCLDY    23  19  85 E9        29.62F WCI  13
SOUTH ST PAUL  PTCLDY    24  20  85 SE5       29.65F WCI  18
LAKE ELMO      FAIR      23  21  93 E3        29.66F
$$
MNZ001>005-007-008-013>017-022>024-027-028-290800-
   Northwest Minnesota

CITY           SKY/WX    TMP DP  RH WIND       PRES   REMARKS
BEMIDJI        CLOUDY    17  13  87 SE9       29.54F WCI   5
HALLOCK        CLOUDY    18  14  86 SE10      29.53F WCI   6
ROSEAU         CLOUDY    18  12  79 E5        29.56F WCI  11
WARROAD        CLOUDY    18  12  79 SE3       29.57F
THIEF RVR FALL CLOUDY    18  14  86 SE6       29.54F WCI   9
CROOKSTON      MOCLDY    19  16  86 S8        29.55F WCI   9
FOSSTON        PTCLDY    16  12  86 S6        29.53F WCI   7
DETROIT LAKES  CLOUDY    19  18  93 SE9       29.54F WCI   9
MOORHEAD       CLOUDY    21  21 100 S16       29.54F WCI   7
PARK RAPIDS    CLOUDY    17  14  88 SE13      29.54F WCI   4
MAHNOMEN       PTSUNNY   19  15  85 S7        29.53F WCI  10
$$
MNZ006-009>011-018-025>026-290800-
   North Central Minnesota

CITY           SKY/WX    TMP DP  RH WIND       PRES   REMARKS
BAUDETTE       CLOUDY    17  12  80 SE5       29.58F WCI  10
FLAG ISLAND    FLURRIES  16  12  86 SE5       29.58F WCI   9
INTL FALLS     CLOUDY    18  13  80 SE5       29.60F WCI  11
WASKISH        CLOUDY    18  12  79 CALM      29.56F
BIG FORK       CLOUDY    18  12  79 SE5       29.59S WCI  11
LONGVILLE      CLOUDY    18  16  93 SE10      29.58F WCI   6
GRAND RAPIDS   CLOUDY    18  12  79 S12       29.57F WCI   5
CRANE LAKE     CLOUDY    18  16  93 CALM      29.64F
ORR            CLOUDY    18  12  79 SE7       29.58S WCI   8
COOK           CLOUDY    18  14  86 SE7       29.60F WCI   8
WALKER         CLOUDY    17  14  86 SE9       29.54F WCI   6
$$
MNZ012-019>021-037-290800-
   Northeast Minnesota

CITY           SKY/WX    TMP DP  RH WIND       PRES   REMARKS
DULUTH         CLOUDY    18  13  80 SE8       29.63F WCI   8
ELY            CLOUDY    18  14  86 SE7       29.62F WCI   8
HIBBING        CLOUDY    18  12  77 SE8       29.60F WCI   8
EVELETH        CLOUDY    19  16  86 SE8       29.62F WCI   9
DULUTH HARBOR  CLOUDY    21  18  86 CALM      29.70F
TWO HARBORS    CLOUDY    21  18  86 CALM      29.66F
SILVER BAY     PTCLDY    21  18  86 CALM      29.67F
GRAND MARAIS     N/A     27  21  78 SW12      29.73F WCI  17
G MARAIS ARPRT CLOUDY    18  16  93 SE5       29.65F WCI  11
$$
MNZ029>031-032-039>041-046>048-054>057-064-290800-
   West Central Minnesota

CITY           SKY/WX    TMP DP  RH WIND       PRES   REMARKS
FERGUS FALLS   CLOUDY    19  16  86 S15       29.57F WCI   5
WHEATON        CLOUDY    19  18  93 SE14      29.54F FOG     WCI   6
MORRIS         FAIR      19  18  93 SE14      29.53F FOG     WCI   6
ALEXANDRIA     CLOUDY    20  17  88 SE9       29.56F WCI   9
ELBOW LAKE     CLOUDY    20  18  92 SE15      29.52F WCI   6
WADENA         CLOUDY    18  16  93 SE10      29.54F WCI   6
GLENWOOD       PTCLDY    19  18  93 SE9       29.56F WCI   9
APPLETON       PTCLDY    19  18  93 SE6       29.56F WCI  11
BENSON         PTCLDY    19  18  93 S9        29.56F WCI   9
ORTONVILLE     CLOUDY    19  16  86 SE8       29.54F FOG     WCI   9
MADISON        MOCLDY    21  19  93 SE12      29.55F WCI   9
WILLMAR        FAIR      21  18  86 SE10      29.57F WCI  10
$$
MNZ033>034-036-042>043-049>051-058-059-290800-
   Central Minnesota

CITY           SKY/WX    TMP DP  RH WIND       PRES   REMARKS
ST CLOUD       PTCLDY    21  16  81 E3        29.62F
SAUK CENTRE    CLOUDY    20  18  90 SE8       29.58F WCI  11
PAYNESVILLE    PTCLDY    18  17  96 E8        29.58F WCI   7
AITKIN         CLOUDY    21  16  79 SE3       29.60S
PINE RIVER     CLOUDY    18  16  93 SE8       29.62F WCI   7
BRAINERD       CLOUDY    18  15  88 SE6       29.60F WCI  10
STAPLES        CLOUDY    18  16  93 SE8       29.56F WCI   7
LONG PRAIRIE   CLOUDY    19  18  93 E5        29.58F WCI  13
LITTLE FALLS   CLOUDY    19  16  86 SE7       29.61F WCI  10
LITCHFIELD     PTCLDY    19  19 100 SE7       29.59F WCI  10
BUFFALO        PTCLDY    21  18  88 E5        29.63F WCI  14
MAPLE LAKE     PTCLDY    19  17  94 E5        29.61F WCI  12
$$
MNZ037-044-045-052-053-290800-
   East Central Minnesota

CITY           SKY/WX    TMP DP  RH WIND       PRES   REMARKS
PRINCETON      PTCLDY    19  18  93 E7        29.62F WCI  10
MORA             N/A    N/A N/A N/A MISG        N/A
CAMBRIDGE      PTCLDY    21  14  73 E6        29.62F WCI  14
RUSH CITY      PTCLDY    18  15  88 E3        29.65F
MOOSE LAKE     CLOUDY    19  14  79 SE5       29.62F WCI  13
HINCKLEY       CLOUDY    21  18  86 CALM      29.65F
CLOQUET        CLOUDY    18  14  86 SE5       29.63F WCI  11
MCGREGOR       CLOUDY    21  18  86 SE6       29.62F WCI  14
$$
MNZ071>073-080-081-089-090-097-098-290800-
   Southwest Minnesota

CITY           SKY/WX    TMP DP  RH WIND       PRES   REMARKS
MONTEVIDEO     PTCLDY    18  18 100 S6        29.57F WCI   9
GRANITE FALLS  CLEAR     20  18  93 SE10      29.57F WCI   8
CANBY          CLOUDY    18  17  95 SE5       29.54F FOG     WCI  11
MARSHALL       PTCLDY    16  10  79 SE9       29.53F WCI   4
REDWOOD FALLS  FAIR      20  17  88 SE12      29.56F WCI   8
OLIVIA         CLEAR     23  21  93 SE9       29.56F WCI  13
PIPESTONE      CLEAR     25  23  93 SE9       29.51F WCI  15
WINDOM         PTCLDY    21  19  93 SE3       29.55F FOG
WORTHINGTON    MOCLDY    21  19  93 SE6       29.55F WCI  14
JACKSON        PTCLDY    23  21  93 SE8       29.56F WCI  14
TRACY          PTCLDY    22  21  95 S7        29.53F WCI  14
SLAYTON        PTCLDY    18  17  96 S6        29.53F FOG     WCI   9
$$
MNZ065>067-074>077-082>085-091>093-290800-
   South Central Minnesota

CITY           SKY/WX    TMP DP  RH WIND       PRES   REMARKS
MANKATO        PTCLDY    23  18  80 SE10      29.60F WCI  12
NEW ULM        PTCLDY    19  19 100 E7        29.59F FOG     WCI  10
ST JAMES       PTCLDY    16  14  93 CALM      29.59F FOG
FAIRMONT       MOCLDY    19  18  93 SE8       29.57F WCI   9
GLENCOE        PTCLDY    19  18  95 E7        29.60F WCI  10
FARIBAULT      PTCLDY    21  19  93 SE6       29.63F WCI  14
OWATONNA       PTCLDY    25  21  86 SE14      29.61F WCI  13
WASECA         PTCLDY    27  21  80 SE10      29.63F WCI  17
ALBERT LEA     PTCLDY    23  23 100 SE6       29.61F FOG     WCI  16
$$
MNZ078>079-086>088-094>096-290800-
   Southeast Minnesota

CITY           SKY/WX    TMP DP  RH WIND       PRES   REMARKS
ROCHESTER      PTCLDY    22  19  89 SE14      29.64F FOG     WCI   9
RED WING       PTCLDY    25  21  86 SE9       29.66F WCI  15
STANTON        PTCLDY    25  20  83 SE3       29.63F
DODGE CENTER   PTCLDY    25  23  93 SE14      29.62F FOG     WCI  13
WINONA         PTCLDY    25  21  86 S5        29.71F WCI  19
AUSTIN         PTCLDY    21  19  93 SE5       29.62F FOG     WCI  15
PRESTON        PTCLDY    23  22  94 SE6       29.66F FOG     WCI  16
$$
ABBREVIATIONS USED IN REMARKS
   TC - TEMPERATURES IN CELSIUS
  WCI - WIND CHILL INDEX
   HX - HEAT INDEX
  VSB - VISIBILITY
$$



USA.gov is the U.S. government's official web portal to all federal, state and local government web resources and services.